Year,Month,Day,Hour,Minute,Value (Times are PST for temperature in C)
2020,06,04,00,00,10.70
2020,06,04,00,01,10.60
2020,06,04,00,02,10.60
2020,06,04,00,03,10.60
2020,06,04,00,04,10.60
2020,06,04,00,05,10.60
2020,06,04,00,06,10.60
2020,06,04,00,07,10.50
2020,06,04,00,08,10.50
2020,06,04,00,09,10.50
2020,06,04,00,10,10.40
2020,06,04,00,11,10.40
2020,06,04,00,12,10.40
2020,06,04,00,13,10.40
2020,06,04,00,14,10.40
2020,06,04,00,15,10.40
2020,06,04,00,16,10.30
2020,06,04,00,17,10.30
2020,06,04,00,18,10.30
2020,06,04,00,19,10.30
2020,06,04,00,20,10.30
2020,06,04,00,21,10.30
2020,06,04,00,22,10.20
2020,06,04,00,23,10.20
2020,06,04,00,24,10.20
2020,06,04,00,25,10.20
2020,06,04,00,26,10.20
2020,06,04,00,27,10.10
2020,06,04,00,28,10.10
2020,06,04,00,29,10.10
2020,06,04,00,30,10.10
2020,06,04,00,31,10.10
2020,06,04,00,32,10.10
2020,06,04,00,33,10.10
2020,06,04,00,34,10.10
2020,06,04,00,35,10.10
2020,06,04,00,36,10.10
2020,06,04,00,37,10.10
2020,06,04,00,38,10.10
2020,06,04,00,39,10.00
2020,06,04,00,40,10.00
2020,06,04,00,41,10.00
2020,06,04,00,42,10.00
2020,06,04,00,43,10.00
2020,06,04,00,44,10.00
2020,06,04,00,45,10.00
2020,06,04,00,46,10.00
2020,06,04,00,47,10.00
2020,06,04,00,48,10.00
2020,06,04,00,49,10.00
2020,06,04,00,50,10.00
2020,06,04,00,51,9.90
2020,06,04,00,52,9.90
2020,06,04,00,53,9.90
2020,06,04,00,54,9.90
2020,06,04,00,55,9.90
2020,06,04,00,56,9.90
2020,06,04,00,57,9.90
2020,06,04,00,58,9.80
2020,06,04,00,59,9.80
2020,06,04,01,00,9.80
2020,06,04,01,01,9.80
2020,06,04,01,02,9.80
2020,06,04,01,03,9.80
2020,06,04,01,04,9.80
2020,06,04,01,05,9.80
2020,06,04,01,06,9.80
2020,06,04,01,07,9.80
2020,06,04,01,08,9.70
2020,06,04,01,09,9.70
2020,06,04,01,10,9.70
2020,06,04,01,11,9.70
2020,06,04,01,12,9.70
2020,06,04,01,13,9.70
2020,06,04,01,14,9.70
2020,06,04,01,15,9.70
2020,06,04,01,16,9.70
2020,06,04,01,17,9.70
2020,06,04,01,18,9.70
2020,06,04,01,19,9.70
2020,06,04,01,20,9.70
2020,06,04,01,21,9.60
2020,06,04,01,22,9.60
2020,06,04,01,23,9.60
2020,06,04,01,24,9.60
2020,06,04,01,25,9.60
2020,06,04,01,26,9.60
2020,06,04,01,27,9.60
2020,06,04,01,28,9.60
2020,06,04,01,29,9.50
2020,06,04,01,30,9.60
2020,06,04,01,31,9.60
2020,06,04,01,32,9.50
2020,06,04,01,33,9.50
2020,06,04,01,34,9.50
2020,06,04,01,35,9.50
2020,06,04,01,36,9.50
2020,06,04,01,37,9.40
2020,06,04,01,38,9.40
2020,06,04,01,39,9.40
2020,06,04,01,40,9.40
2020,06,04,01,41,9.40
2020,06,04,01,42,9.30
2020,06,04,01,43,9.30
2020,06,04,01,44,9.30
2020,06,04,01,45,9.30
2020,06,04,01,46,9.30
2020,06,04,01,47,9.20
2020,06,04,01,48,9.20
2020,06,04,01,49,9.20
2020,06,04,01,50,9.10
2020,06,04,01,51,9.10
2020,06,04,01,52,9.10
2020,06,04,01,53,9.00
2020,06,04,01,54,9.00
2020,06,04,01,55,9.00
2020,06,04,01,56,9.00
2020,06,04,01,57,8.90
2020,06,04,01,58,8.90
2020,06,04,01,59,8.90
2020,06,04,02,00,8.90
2020,06,04,02,01,8.90
2020,06,04,02,02,8.80
2020,06,04,02,03,8.80
2020,06,04,02,04,8.80
2020,06,04,02,05,8.80
2020,06,04,02,06,8.80
2020,06,04,02,07,8.80
2020,06,04,02,08,8.80
2020,06,04,02,09,8.80
2020,06,04,02,10,8.80
2020,06,04,02,11,8.80
2020,06,04,02,12,8.80
2020,06,04,02,13,8.80
2020,06,04,02,14,8.80
2020,06,04,02,15,8.80
2020,06,04,02,16,8.80
2020,06,04,02,17,8.70
2020,06,04,02,18,8.70
2020,06,04,02,19,8.70
2020,06,04,02,20,8.70
2020,06,04,02,21,8.70
2020,06,04,02,22,8.70
2020,06,04,02,23,8.70
2020,06,04,02,24,8.70
2020,06,04,02,25,8.70
2020,06,04,02,26,8.70
2020,06,04,02,27,8.70
2020,06,04,02,28,8.60
2020,06,04,02,29,8.60
2020,06,04,02,30,8.60
2020,06,04,02,31,8.60
2020,06,04,02,32,8.60
2020,06,04,02,33,8.60
2020,06,04,02,34,8.50
2020,06,04,02,35,8.50
2020,06,04,02,36,8.50
2020,06,04,02,37,8.50
2020,06,04,02,38,8.50
2020,06,04,02,39,8.50
2020,06,04,02,40,8.50
2020,06,04,02,41,8.50
2020,06,04,02,42,8.50
2020,06,04,02,43,8.50
2020,06,04,02,44,8.50
2020,06,04,02,45,8.50
2020,06,04,02,46,8.40
2020,06,04,02,47,8.40
2020,06,04,02,48,8.40
2020,06,04,02,49,8.40
2020,06,04,02,50,8.40
2020,06,04,02,51,8.40
2020,06,04,02,52,8.40
2020,06,04,02,53,8.40
2020,06,04,02,54,8.40
2020,06,04,02,55,8.40
2020,06,04,02,56,8.40
2020,06,04,02,57,8.40
2020,06,04,02,58,8.40
2020,06,04,02,59,8.40
2020,06,04,03,00,8.40
2020,06,04,03,01,8.40
2020,06,04,03,02,8.40
2020,06,04,03,03,8.40
2020,06,04,03,04,8.40
2020,06,04,03,05,8.40
2020,06,04,03,06,8.40
2020,06,04,03,07,8.40
2020,06,04,03,08,8.40
2020,06,04,03,09,8.40
2020,06,04,03,10,8.40
2020,06,04,03,11,8.30
2020,06,04,03,12,8.30
2020,06,04,03,13,8.30
2020,06,04,03,14,8.30
2020,06,04,03,15,8.30
2020,06,04,03,16,8.30
2020,06,04,03,17,8.30
2020,06,04,03,18,8.30
2020,06,04,03,19,8.30
2020,06,04,03,20,8.30
2020,06,04,03,21,8.30
2020,06,04,03,22,8.30
2020,06,04,03,23,8.30
2020,06,04,03,24,8.30
2020,06,04,03,25,8.30
2020,06,04,03,26,8.30
2020,06,04,03,27,8.30
2020,06,04,03,28,8.20
2020,06,04,03,29,8.20
2020,06,04,03,30,8.20
2020,06,04,03,31,8.20
2020,06,04,03,32,8.20
2020,06,04,03,33,8.20
2020,06,04,03,34,8.20
2020,06,04,03,35,8.20
2020,06,04,03,36,8.20
2020,06,04,03,37,8.20
2020,06,04,03,38,8.20
2020,06,04,03,39,8.20
2020,06,04,03,40,8.20
2020,06,04,03,41,8.20
2020,06,04,03,42,8.20
2020,06,04,03,43,8.10
2020,06,04,03,44,8.20
2020,06,04,03,45,8.20
2020,06,04,03,46,8.20
2020,06,04,03,47,8.10
2020,06,04,03,48,8.20
2020,06,04,03,49,8.20
2020,06,04,03,50,8.20
2020,06,04,03,51,8.20
2020,06,04,03,52,8.20
2020,06,04,03,53,8.20
2020,06,04,03,54,8.10
2020,06,04,03,55,8.20
2020,06,04,03,56,8.20
2020,06,04,03,57,8.20
2020,06,04,03,58,8.20
2020,06,04,03,59,8.20
2020,06,04,04,00,8.20
2020,06,04,04,01,8.20
2020,06,04,04,02,8.20
2020,06,04,04,03,8.20
2020,06,04,04,04,8.20
2020,06,04,04,05,8.20
2020,06,04,04,06,8.20
2020,06,04,04,07,8.20
2020,06,04,04,08,8.20
2020,06,04,04,09,8.30
2020,06,04,04,10,8.30
2020,06,04,04,11,8.30
2020,06,04,04,12,8.30
2020,06,04,04,13,8.30
2020,06,04,04,14,8.30
2020,06,04,04,15,8.30
2020,06,04,04,16,8.30
2020,06,04,04,17,8.30
2020,06,04,04,18,8.30
2020,06,04,04,19,8.30
2020,06,04,04,20,8.40
2020,06,04,04,21,8.40
2020,06,04,04,22,8.40
2020,06,04,04,23,8.40
2020,06,04,04,24,8.40
2020,06,04,04,25,8.40
2020,06,04,04,26,8.50
2020,06,04,04,27,8.50
2020,06,04,04,28,8.50
2020,06,04,04,29,8.50
2020,06,04,04,30,8.60
2020,06,04,04,31,8.60
2020,06,04,04,32,8.60
2020,06,04,04,33,8.60
2020,06,04,04,34,8.60
2020,06,04,04,35,8.60
2020,06,04,04,36,8.60
2020,06,04,04,37,8.60
2020,06,04,04,38,8.60
2020,06,04,04,39,8.60
2020,06,04,04,40,8.60
2020,06,04,04,41,8.60
2020,06,04,04,42,8.60
2020,06,04,04,43,8.60
2020,06,04,04,44,8.60
2020,06,04,04,45,8.60
2020,06,04,04,46,8.70
2020,06,04,04,47,8.70
2020,06,04,04,48,8.70
2020,06,04,04,49,8.70
2020,06,04,04,50,8.70
2020,06,04,04,51,8.70
2020,06,04,04,52,8.70
2020,06,04,04,53,8.80
2020,06,04,04,54,8.80
2020,06,04,04,55,8.80
2020,06,04,04,56,8.80
2020,06,04,04,57,8.80
2020,06,04,04,58,8.80
2020,06,04,04,59,8.80
2020,06,04,05,00,8.80
2020,06,04,05,01,8.80
2020,06,04,05,02,8.80
2020,06,04,05,03,8.80
2020,06,04,05,04,8.80
2020,06,04,05,05,8.80
2020,06,04,05,06,8.80
2020,06,04,05,07,8.80
2020,06,04,05,08,8.80
2020,06,04,05,09,8.80
2020,06,04,05,10,8.80
2020,06,04,05,11,8.80
2020,06,04,05,12,8.80
2020,06,04,05,13,8.90
2020,06,04,05,14,8.90
2020,06,04,05,15,8.90
2020,06,04,05,16,8.90
2020,06,04,05,17,8.90
2020,06,04,05,18,8.90
2020,06,04,05,19,8.90
2020,06,04,05,20,9.00
2020,06,04,05,21,9.00
2020,06,04,05,22,9.00
2020,06,04,05,23,9.00
2020,06,04,05,24,9.00
2020,06,04,05,25,9.00
2020,06,04,05,26,9.00
2020,06,04,05,27,9.10
2020,06,04,05,28,9.10
2020,06,04,05,29,9.10
2020,06,04,05,30,9.10
2020,06,04,05,31,9.10
2020,06,04,05,32,9.10
2020,06,04,05,33,9.10
2020,06,04,05,34,9.10
2020,06,04,05,35,9.20
2020,06,04,05,36,9.20
2020,06,04,05,37,9.20
2020,06,04,05,38,9.20
2020,06,04,05,39,9.20
2020,06,04,05,40,9.30
2020,06,04,05,41,9.30
2020,06,04,05,42,9.30
2020,06,04,05,43,9.30
2020,06,04,05,44,9.30
2020,06,04,05,45,9.40
2020,06,04,05,46,9.40
2020,06,04,05,47,9.40
2020,06,04,05,48,9.40
2020,06,04,05,49,9.40
2020,06,04,05,50,9.50
2020,06,04,05,51,9.60
2020,06,04,05,52,9.70
2020,06,04,05,53,9.80
2020,06,04,05,54,9.80
2020,06,04,05,55,9.90
2020,06,04,05,56,9.90
2020,06,04,05,57,10.00
2020,06,04,05,58,10.00
2020,06,04,05,59,10.00
2020,06,04,06,00,10.00
2020,06,04,06,01,10.00
2020,06,04,06,02,10.00
2020,06,04,06,03,10.00
2020,06,04,06,04,10.00
2020,06,04,06,05,10.00
2020,06,04,06,06,10.10
2020,06,04,06,07,10.00
2020,06,04,06,08,10.10
2020,06,04,06,09,10.10
2020,06,04,06,10,10.10
2020,06,04,06,11,10.10
2020,06,04,06,12,10.10
2020,06,04,06,13,10.10
2020,06,04,06,14,10.10
2020,06,04,06,15,10.20
2020,06,04,06,16,10.20
2020,06,04,06,17,10.20
2020,06,04,06,18,10.20
2020,06,04,06,19,10.20
2020,06,04,06,20,10.20
2020,06,04,06,21,10.20
2020,06,04,06,22,10.30
2020,06,04,06,23,10.30
2020,06,04,06,24,10.30
2020,06,04,06,25,10.30
2020,06,04,06,26,10.30
2020,06,04,06,27,10.30
2020,06,04,06,28,10.30
2020,06,04,06,29,10.30
2020,06,04,06,30,10.40
2020,06,04,06,31,10.40
2020,06,04,06,32,10.40
2020,06,04,06,33,10.40
2020,06,04,06,34,10.40
2020,06,04,06,35,10.40
2020,06,04,06,36,10.40
2020,06,04,06,37,10.40
2020,06,04,06,38,10.40
2020,06,04,06,39,10.50
2020,06,04,06,40,10.50
2020,06,04,06,41,10.50
2020,06,04,06,42,10.50
2020,06,04,06,43,10.50
2020,06,04,06,44,10.50
2020,06,04,06,45,10.50
2020,06,04,06,46,10.60
2020,06,04,06,47,10.60
2020,06,04,06,48,10.60
2020,06,04,06,49,10.60
2020,06,04,06,50,10.60
2020,06,04,06,51,10.70
2020,06,04,06,52,10.70
2020,06,04,06,53,10.70
2020,06,04,06,54,10.80
2020,06,04,06,55,10.80
2020,06,04,06,56,10.80
2020,06,04,06,57,10.80
2020,06,04,06,58,10.80
2020,06,04,06,59,10.90
2020,06,04,07,00,10.90
2020,06,04,07,01,10.90
2020,06,04,07,02,10.90
2020,06,04,07,03,10.90
2020,06,04,07,04,11.00
2020,06,04,07,05,11.00
2020,06,04,07,06,11.00
2020,06,04,07,07,11.10
2020,06,04,07,08,11.10
2020,06,04,07,09,11.10
2020,06,04,07,10,11.10
2020,06,04,07,11,11.20
2020,06,04,07,12,11.20
2020,06,04,07,13,11.30
2020,06,04,07,14,11.30
2020,06,04,07,15,11.40
2020,06,04,07,16,11.50
2020,06,04,07,17,11.60
2020,06,04,07,18,11.60
2020,06,04,07,19,11.70
2020,06,04,07,20,11.70
2020,06,04,07,21,11.80
2020,06,04,07,22,11.80
2020,06,04,07,23,11.80
2020,06,04,07,24,11.80
2020,06,04,07,25,11.90
2020,06,04,07,26,11.90
2020,06,04,07,27,11.90
2020,06,04,07,28,12.00
2020,06,04,07,29,12.00
2020,06,04,07,30,12.00
2020,06,04,07,31,12.00
2020,06,04,07,32,12.10
2020,06,04,07,33,12.10
2020,06,04,07,34,12.10
2020,06,04,07,35,12.10
2020,06,04,07,36,12.10
2020,06,04,07,37,12.10
2020,06,04,07,38,12.10
2020,06,04,07,39,12.10
2020,06,04,07,40,12.20
2020,06,04,07,41,12.20
2020,06,04,07,42,12.20
2020,06,04,07,43,12.20
2020,06,04,07,44,12.20
2020,06,04,07,45,12.30
2020,06,04,07,46,12.30
2020,06,04,07,47,12.30
2020,06,04,07,48,12.30
2020,06,04,07,49,12.30
2020,06,04,07,50,12.40
2020,06,04,07,51,12.40
2020,06,04,07,52,12.40
2020,06,04,07,53,12.40
2020,06,04,07,54,12.50
2020,06,04,07,55,12.50
2020,06,04,07,56,12.60
2020,06,04,07,57,12.60
2020,06,04,07,58,12.70
2020,06,04,07,59,12.70
2020,06,04,08,00,12.80
2020,06,04,08,01,12.80
2020,06,04,08,02,12.90
2020,06,04,08,03,12.90
2020,06,04,08,04,12.90
2020,06,04,08,05,13.00
2020,06,04,08,06,13.00
2020,06,04,08,07,13.10
2020,06,04,08,08,13.10
2020,06,04,08,09,13.10
2020,06,04,08,10,13.20
2020,06,04,08,11,13.20
2020,06,04,08,12,13.20
2020,06,04,08,13,13.20
2020,06,04,08,14,13.20
2020,06,04,08,15,13.20
2020,06,04,08,16,13.20
2020,06,04,08,17,13.20
2020,06,04,08,18,13.20
2020,06,04,08,19,13.20
2020,06,04,08,20,13.20
2020,06,04,08,21,13.20
2020,06,04,08,22,13.20
2020,06,04,08,23,13.20
2020,06,04,08,24,13.20
2020,06,04,08,25,13.20
2020,06,04,08,26,13.20
2020,06,04,08,27,13.20
2020,06,04,08,28,13.20
2020,06,04,08,29,13.20
2020,06,04,08,30,13.20
2020,06,04,08,31,13.20
2020,06,04,08,32,13.20
2020,06,04,08,33,13.20
2020,06,04,08,34,13.20
2020,06,04,08,35,13.20
2020,06,04,08,36,13.20
2020,06,04,08,37,13.20
2020,06,04,08,38,13.20
2020,06,04,08,39,13.20
2020,06,04,08,40,13.20
2020,06,04,08,41,13.20
2020,06,04,08,42,13.20
2020,06,04,08,43,13.20
2020,06,04,08,44,13.20
2020,06,04,08,45,13.20
2020,06,04,08,46,13.20
2020,06,04,08,47,13.20
2020,06,04,08,48,13.20
2020,06,04,08,49,13.20
2020,06,04,08,50,13.20
2020,06,04,08,51,13.20
2020,06,04,08,52,13.20
2020,06,04,08,53,13.20
2020,06,04,08,54,13.20
2020,06,04,08,55,13.30
2020,06,04,08,56,13.30
2020,06,04,08,57,13.30
2020,06,04,08,58,13.30
2020,06,04,08,59,13.30
2020,06,04,09,00,13.30
2020,06,04,09,01,13.30
2020,06,04,09,02,13.30
2020,06,04,09,03,13.30
2020,06,04,09,04,13.30
2020,06,04,09,05,13.30
2020,06,04,09,06,13.30
2020,06,04,09,07,13.30
2020,06,04,09,08,13.30
2020,06,04,09,09,13.30
2020,06,04,09,10,13.30
2020,06,04,09,11,13.30
2020,06,04,09,12,13.30
2020,06,04,09,13,13.30
2020,06,04,09,14,13.30
2020,06,04,09,15,13.30
2020,06,04,09,16,13.30
2020,06,04,09,17,13.30
2020,06,04,09,18,13.30
2020,06,04,09,19,13.40
2020,06,04,09,20,13.40
2020,06,04,09,21,13.40
2020,06,04,09,22,13.40
2020,06,04,09,23,13.40
2020,06,04,09,24,13.40
2020,06,04,09,25,13.40
2020,06,04,09,26,13.40
2020,06,04,09,27,13.40
2020,06,04,09,28,13.40
2020,06,04,09,29,13.50
2020,06,04,09,30,13.50
2020,06,04,09,31,13.50
2020,06,04,09,32,13.50
2020,06,04,09,33,13.50
2020,06,04,09,34,13.50
2020,06,04,09,35,13.50
2020,06,04,09,36,13.40
2020,06,04,09,37,13.40
2020,06,04,09,38,13.40
2020,06,04,09,39,13.40
2020,06,04,09,40,13.40
2020,06,04,09,41,13.30
2020,06,04,09,42,13.30
2020,06,04,09,43,13.30
2020,06,04,09,44,13.40
2020,06,04,09,45,13.40
2020,06,04,09,46,13.40
2020,06,04,09,47,13.40
2020,06,04,09,48,13.50
2020,06,04,09,49,13.50
2020,06,04,09,50,13.60
2020,06,04,09,51,13.60
2020,06,04,09,52,13.60
2020,06,04,09,53,13.60
2020,06,04,09,54,13.70
2020,06,04,09,55,13.70
2020,06,04,09,56,13.70
2020,06,04,09,57,13.70
2020,06,04,09,58,13.80
2020,06,04,09,59,13.80
2020,06,04,10,00,13.80
2020,06,04,10,01,13.90
2020,06,04,10,02,13.90
2020,06,04,10,03,14.00
2020,06,04,10,04,14.00
2020,06,04,10,05,14.00
2020,06,04,10,06,14.10
2020,06,04,10,07,14.10
2020,06,04,10,08,14.20
2020,06,04,10,09,14.20
2020,06,04,10,10,14.20
2020,06,04,10,11,14.30
2020,06,04,10,12,14.30
2020,06,04,10,13,14.30
2020,06,04,10,14,14.40
2020,06,04,10,15,14.40
2020,06,04,10,16,14.50
2020,06,04,10,17,14.50
2020,06,04,10,18,14.60
2020,06,04,10,19,14.70
2020,06,04,10,20,14.70
2020,06,04,10,21,14.70
2020,06,04,10,22,14.80
2020,06,04,10,23,14.80
2020,06,04,10,24,14.80
2020,06,04,10,25,14.80
2020,06,04,10,26,14.70
2020,06,04,10,27,14.80
2020,06,04,10,28,14.80
2020,06,04,10,29,14.80
2020,06,04,10,30,14.80
2020,06,04,10,31,14.80
2020,06,04,10,32,14.80
2020,06,04,10,33,14.80
2020,06,04,10,34,14.80
2020,06,04,10,35,14.80
2020,06,04,10,36,14.80
2020,06,04,10,37,14.80
2020,06,04,10,38,14.90
2020,06,04,10,39,14.90
2020,06,04,10,40,14.90
2020,06,04,10,41,15.00
2020,06,04,10,42,15.10
2020,06,04,10,43,15.10
2020,06,04,10,44,15.10
2020,06,04,10,45,15.10
2020,06,04,10,46,15.10
2020,06,04,10,47,15.10
2020,06,04,10,48,15.00
2020,06,04,10,49,15.00
2020,06,04,10,50,15.00
2020,06,04,10,51,14.90
2020,06,04,10,52,14.90
2020,06,04,10,53,14.90
2020,06,04,10,54,14.90
2020,06,04,10,55,14.90
2020,06,04,10,56,14.90
2020,06,04,10,57,14.90
2020,06,04,10,58,15.00
2020,06,04,10,59,15.00
2020,06,04,11,00,15.00
2020,06,04,11,01,15.10
2020,06,04,11,02,15.10
2020,06,04,11,03,15.10
2020,06,04,11,04,15.20
2020,06,04,11,05,15.20
2020,06,04,11,06,15.20
2020,06,04,11,07,15.30
2020,06,04,11,08,15.30
2020,06,04,11,09,15.40
2020,06,04,11,10,15.40
2020,06,04,11,11,15.40
2020,06,04,11,12,15.40
2020,06,04,11,13,15.40
2020,06,04,11,14,15.40
2020,06,04,11,15,15.30
2020,06,04,11,16,15.30
2020,06,04,11,17,15.30
2020,06,04,11,18,15.30
2020,06,04,11,19,15.40
2020,06,04,11,20,15.40
2020,06,04,11,21,15.40
2020,06,04,11,22,15.50
2020,06,04,11,23,15.50
2020,06,04,11,24,15.60
2020,06,04,11,25,15.70
2020,06,04,11,26,15.70
2020,06,04,11,27,15.80
2020,06,04,11,28,15.80
2020,06,04,11,29,15.80
2020,06,04,11,30,15.90
2020,06,04,11,31,15.90
2020,06,04,11,32,15.90
2020,06,04,11,33,15.90
2020,06,04,11,34,15.90
2020,06,04,11,35,15.80
2020,06,04,11,36,15.80
2020,06,04,11,37,15.80
2020,06,04,11,38,15.80
2020,06,04,11,39,15.90
2020,06,04,11,40,15.90
2020,06,04,11,41,15.80
2020,06,04,11,42,15.80
2020,06,04,11,43,15.80
2020,06,04,11,44,15.80
2020,06,04,11,45,15.90
2020,06,04,11,46,15.90
2020,06,04,11,47,16.00
2020,06,04,11,48,16.00
2020,06,04,11,49,16.10
2020,06,04,11,50,16.20
2020,06,04,11,51,16.30
2020,06,04,11,52,16.30
2020,06,04,11,53,16.30
2020,06,04,11,54,16.30
2020,06,04,11,55,16.30
2020,06,04,11,56,16.30
2020,06,04,11,57,16.30
2020,06,04,11,58,16.30
2020,06,04,11,59,16.40
2020,06,04,12,00,16.40
2020,06,04,12,01,16.40
2020,06,04,12,02,16.40
2020,06,04,12,03,16.40
2020,06,04,12,04,16.30
2020,06,04,12,05,16.30
2020,06,04,12,06,16.30
2020,06,04,12,07,16.30
2020,06,04,12,08,16.30
2020,06,04,12,09,16.30
2020,06,04,12,10,16.20
2020,06,04,12,11,16.20
2020,06,04,12,12,16.20
2020,06,04,12,13,16.20
2020,06,04,12,14,16.20
2020,06,04,12,15,16.20
2020,06,04,12,16,16.20
2020,06,04,12,17,16.20
2020,06,04,12,18,16.30
2020,06,04,12,19,16.30
2020,06,04,12,20,16.40
2020,06,04,12,21,16.40
2020,06,04,12,22,16.50
2020,06,04,12,23,16.60
2020,06,04,12,24,16.60
2020,06,04,12,25,16.60
2020,06,04,12,26,16.50
2020,06,04,12,27,16.50
2020,06,04,12,28,16.50
2020,06,04,12,29,16.50
2020,06,04,12,30,16.50
2020,06,04,12,31,16.50
2020,06,04,12,32,16.50
2020,06,04,12,33,16.40
2020,06,04,12,34,16.40
2020,06,04,12,35,16.40
2020,06,04,12,36,16.30
2020,06,04,12,37,16.30
2020,06,04,12,38,16.30
2020,06,04,12,39,16.30
2020,06,04,12,40,16.20
2020,06,04,12,41,16.20
2020,06,04,12,42,16.20
2020,06,04,12,43,16.20
2020,06,04,12,44,16.20
2020,06,04,12,45,16.20
2020,06,04,12,46,16.20
2020,06,04,12,47,16.20
2020,06,04,12,48,16.20
2020,06,04,12,49,16.20
2020,06,04,12,50,16.30
2020,06,04,12,51,16.30
2020,06,04,12,52,16.30
2020,06,04,12,53,16.40
2020,06,04,12,54,16.50
2020,06,04,12,55,16.60
2020,06,04,12,56,16.70
2020,06,04,12,57,16.80
2020,06,04,12,58,16.80
2020,06,04,12,59,16.80
2020,06,04,13,00,16.80
2020,06,04,13,01,16.80
2020,06,04,13,02,16.80
2020,06,04,13,03,16.70
2020,06,04,13,04,16.70
2020,06,04,13,05,16.60
2020,06,04,13,06,16.60
2020,06,04,13,07,16.50
2020,06,04,13,08,16.40
2020,06,04,13,09,16.40
2020,06,04,13,10,16.30
2020,06,04,13,11,16.30
2020,06,04,13,12,16.30
2020,06,04,13,13,16.20
2020,06,04,13,14,16.20
2020,06,04,13,15,16.20
2020,06,04,13,16,16.20
2020,06,04,13,17,16.10
2020,06,04,13,18,16.10
2020,06,04,13,19,16.10
2020,06,04,13,20,16.10
2020,06,04,13,21,16.10
2020,06,04,13,22,16.10
2020,06,04,13,23,16.10
2020,06,04,13,24,16.20
2020,06,04,13,25,16.20
2020,06,04,13,26,16.20
2020,06,04,13,27,16.20
2020,06,04,13,28,16.30
2020,06,04,13,29,16.30
2020,06,04,13,30,16.40
2020,06,04,13,31,16.40
2020,06,04,13,32,16.50
2020,06,04,13,33,16.70
2020,06,04,13,34,16.80
2020,06,04,13,35,16.80
2020,06,04,13,36,16.80
2020,06,04,13,37,16.80
2020,06,04,13,38,16.80
2020,06,04,13,39,16.80
2020,06,04,13,40,16.80
2020,06,04,13,41,16.80
2020,06,04,13,42,16.80
2020,06,04,13,43,16.70
2020,06,04,13,44,16.70
2020,06,04,13,45,16.70
2020,06,04,13,46,16.70
2020,06,04,13,47,16.70
2020,06,04,13,48,16.70
2020,06,04,13,49,16.70
2020,06,04,13,50,16.70
2020,06,04,13,51,16.70
2020,06,04,13,52,16.70
2020,06,04,13,53,16.80
2020,06,04,13,54,16.80
2020,06,04,13,55,16.90
2020,06,04,13,56,17.00
2020,06,04,13,57,17.10
2020,06,04,13,58,17.20
2020,06,04,13,59,17.30
2020,06,04,14,00,17.40
2020,06,04,14,01,17.40
2020,06,04,14,02,17.50
2020,06,04,14,03,17.50
2020,06,04,14,04,17.60
2020,06,04,14,05,17.60
2020,06,04,14,06,17.70
2020,06,04,14,07,17.70
2020,06,04,14,08,17.80
2020,06,04,14,09,17.90
2020,06,04,14,10,18.00
2020,06,04,14,11,18.10
2020,06,04,14,12,18.30
2020,06,04,14,13,18.30
2020,06,04,14,14,18.40
2020,06,04,14,15,18.40
2020,06,04,14,16,18.40
2020,06,04,14,17,18.50
2020,06,04,14,18,18.60
2020,06,04,14,19,18.60
2020,06,04,14,20,18.60
2020,06,04,14,21,18.50
2020,06,04,14,22,18.40
2020,06,04,14,23,18.20
2020,06,04,14,24,18.10
2020,06,04,14,25,18.10
2020,06,04,14,26,18.10
2020,06,04,14,27,18.10
2020,06,04,14,28,18.20
2020,06,04,14,29,18.30
2020,06,04,14,30,18.40
2020,06,04,14,31,18.50
2020,06,04,14,32,18.50
2020,06,04,14,33,18.50
2020,06,04,14,34,18.40
2020,06,04,14,35,18.30
2020,06,04,14,36,18.20
2020,06,04,14,37,18.10
2020,06,04,14,38,18.00
2020,06,04,14,39,17.90
2020,06,04,14,40,17.80
2020,06,04,14,41,17.70
2020,06,04,14,42,17.60
2020,06,04,14,43,17.50
2020,06,04,14,44,17.30
2020,06,04,14,45,17.20
2020,06,04,14,46,17.10
2020,06,04,14,47,17.00
2020,06,04,14,48,16.80
2020,06,04,14,49,16.70
2020,06,04,14,50,16.60
2020,06,04,14,51,16.60
2020,06,04,14,52,16.50
2020,06,04,14,53,16.50
2020,06,04,14,54,16.40
2020,06,04,14,55,16.40
2020,06,04,14,56,16.40
2020,06,04,14,57,16.30
2020,06,04,14,58,16.30
2020,06,04,14,59,16.30
2020,06,04,15,00,16.30
2020,06,04,15,01,16.20
2020,06,04,15,02,16.20
2020,06,04,15,03,16.20
2020,06,04,15,04,16.20
2020,06,04,15,05,16.20
2020,06,04,15,06,16.10
2020,06,04,15,07,16.00
2020,06,04,15,08,15.90
2020,06,04,15,09,15.80
2020,06,04,15,10,15.70
2020,06,04,15,11,15.60
2020,06,04,15,12,15.50
2020,06,04,15,13,15.40
2020,06,04,15,14,15.40
2020,06,04,15,15,15.30
2020,06,04,15,16,15.30
2020,06,04,15,17,15.30
2020,06,04,15,18,15.30
2020,06,04,15,19,15.20
2020,06,04,15,20,15.20
2020,06,04,15,21,15.20
2020,06,04,15,22,15.20
2020,06,04,15,23,15.20
2020,06,04,15,24,15.20
2020,06,04,15,25,15.30
2020,06,04,15,26,15.40
2020,06,04,15,27,15.40
2020,06,04,15,28,15.50
2020,06,04,15,29,15.70
2020,06,04,15,30,15.80
2020,06,04,15,31,15.90
2020,06,04,15,32,16.00
2020,06,04,15,33,16.00
2020,06,04,15,34,16.00
2020,06,04,15,35,16.10
2020,06,04,15,36,16.10
2020,06,04,15,37,16.10
2020,06,04,15,38,16.10
2020,06,04,15,39,16.10
2020,06,04,15,40,16.10
2020,06,04,15,41,16.00
2020,06,04,15,42,16.00
2020,06,04,15,43,16.10
2020,06,04,15,44,16.10
2020,06,04,15,45,16.10
2020,06,04,15,46,16.10
2020,06,04,15,47,16.10
2020,06,04,15,48,16.20
2020,06,04,15,49,16.20
2020,06,04,15,50,16.20
2020,06,04,15,51,16.30
2020,06,04,15,52,16.30
2020,06,04,15,53,16.40
2020,06,04,15,54,16.50
2020,06,04,15,55,16.60
2020,06,04,15,56,16.70
2020,06,04,15,57,16.90
2020,06,04,15,58,17.00
2020,06,04,15,59,17.10
2020,06,04,16,00,17.30
2020,06,04,16,01,17.40
2020,06,04,16,02,17.50
2020,06,04,16,03,17.50
2020,06,04,16,04,17.60
2020,06,04,16,05,17.60
2020,06,04,16,06,17.60
2020,06,04,16,07,17.70
2020,06,04,16,08,17.70
2020,06,04,16,09,17.60
2020,06,04,16,10,17.60
2020,06,04,16,11,17.60
2020,06,04,16,12,17.60
2020,06,04,16,13,17.60
2020,06,04,16,14,17.60
2020,06,04,16,15,17.70
2020,06,04,16,16,17.70
2020,06,04,16,17,17.70
2020,06,04,16,18,17.70
2020,06,04,16,19,17.70
2020,06,04,16,20,17.80
2020,06,04,16,21,17.80
2020,06,04,16,22,17.80
2020,06,04,16,23,17.90
2020,06,04,16,24,18.00
2020,06,04,16,25,18.10
2020,06,04,16,26,18.20
2020,06,04,16,27,18.20
2020,06,04,16,28,18.30
2020,06,04,16,29,18.30
2020,06,04,16,30,18.40
2020,06,04,16,31,18.40
2020,06,04,16,32,18.50
2020,06,04,16,33,18.50
2020,06,04,16,34,18.60
2020,06,04,16,35,18.50
2020,06,04,16,36,18.50
2020,06,04,16,37,18.40
2020,06,04,16,38,18.40
2020,06,04,16,39,18.30
2020,06,04,16,40,18.30
2020,06,04,16,41,18.30
2020,06,04,16,42,18.30
2020,06,04,16,43,18.20
2020,06,04,16,44,18.10
2020,06,04,16,45,18.00
2020,06,04,16,46,17.90
2020,06,04,16,47,17.90
2020,06,04,16,48,17.80
2020,06,04,16,49,17.80
2020,06,04,16,50,17.80
2020,06,04,16,51,17.80
2020,06,04,16,52,17.80
2020,06,04,16,53,17.80
2020,06,04,16,54,17.90
2020,06,04,16,55,17.90
2020,06,04,16,56,17.90
2020,06,04,16,57,17.90
2020,06,04,16,58,17.90
2020,06,04,16,59,17.90
2020,06,04,17,00,17.90
2020,06,04,17,01,17.90
2020,06,04,17,02,17.90
2020,06,04,17,03,18.00
2020,06,04,17,04,18.00
2020,06,04,17,05,18.00
2020,06,04,17,06,18.00
2020,06,04,17,07,18.00
2020,06,04,17,08,18.00
2020,06,04,17,09,18.00
2020,06,04,17,10,18.00
2020,06,04,17,11,18.10
2020,06,04,17,12,18.10
2020,06,04,17,13,18.10
2020,06,04,17,14,18.10
2020,06,04,17,15,18.10
2020,06,04,17,16,18.00
2020,06,04,17,17,17.90
2020,06,04,17,18,17.80
2020,06,04,17,19,17.70
2020,06,04,17,20,17.70
2020,06,04,17,21,17.60
2020,06,04,17,22,17.60
2020,06,04,17,23,17.60
2020,06,04,17,24,17.60
2020,06,04,17,25,17.60
2020,06,04,17,26,17.50
2020,06,04,17,27,17.50
2020,06,04,17,28,17.50
2020,06,04,17,29,17.40
2020,06,04,17,30,17.40
2020,06,04,17,31,17.40
2020,06,04,17,32,17.30